Gene Autry, OK

5:02 PM CST on December 07, 2016 (GMT -0600)
Ardmore Municipal

Weather History for KADM - November, 2014

Change the Weather History Date:

Friday, November 7, 2014

  Actual Average Record
Temperature  
Mean Temperature 51 °F -  
Max Temperature 69 °F 62 °F 86 °F (2005)
Min Temperature 33 °F 45 °F 32 °F (2013)
Degree Days  
Heating Degree Days 14    
Growing Degree Days 1 (Base 50)    
Moisture  
Dew Point 39 °F    
Average Humidity 78    
Maximum Humidity 100    
Minimum Humidity 32    
Precipitation  
Precipitation 0.00 in - - ()
Sea Level Pressure  
Sea Level Pressure 30.16 in    
Wind  
Wind Speed 2 mph (SSE)    
Max Wind Speed 12 mph    
Max Gust Speed 17 mph    
Visibility 10 miles    
Events      
Averages and records for this station are not official NWS values.
T = Trace of Precipitation, MM = Missing Value Source: NWS Daily Summary

Daily Weather History Graph

Daily Weather History Graph

Search for Another Location

Airport or City:

Trip Planner

Search our weather history database for the weather conditions in past years. The results will help you decide how hot, cold, wet, or windy it might be!

Date:

Astronomy

Nov. 07, 2014 Rise Set
Actual Time 6:53 AM CST 5:29 PM CST
Civil Twilight 6:27 AM CST 5:55 PM CST
Nautical Twilight 5:57 AM CST 6:25 PM CST
Astronomical Twilight 5:27 AM CST 6:55 PM CST
Moon 6:23 PM CST 7:30 AM CST
Length of Visible Light 11h 28m
Length of Day
10h 35m
Full, 99% of the Moon is Illuminated
Nov 7
Full
Nov 14
Last Quarter
Nov 22
New
Nov 29
First Quarter
Dec 6
Full

Hourly Weather History & Observations

Time (CST) Temp. Windchill Dew Point Humidity Pressure Visibility Wind Dir Wind Speed Gust Speed Precip Events Conditions
12:15 AM 42.1 °F - 36.9 °F 82% 30.32 in 10.0 mi Calm Calm - N/A   Clear
12:35 AM 40.6 °F 38.6 °F 36.0 °F 83% 30.32 in 10.0 mi SW 3.5 mph - N/A   Clear
12:55 AM 39.9 °F - 38.1 °F 93% 30.32 in 10.0 mi Calm Calm - N/A   Clear
1:15 AM 40.1 °F - 37.9 °F 92% 30.31 in 10.0 mi Calm Calm - N/A   Clear
1:35 AM 38.5 °F 36.1 °F 36.9 °F 94% 30.30 in 10.0 mi NE 3.5 mph - N/A   Clear
1:55 AM 39.2 °F - 37.4 °F 93% 30.30 in 10.0 mi Calm Calm - N/A   Clear
2:15 AM 39.2 °F - 37.9 °F 95% 30.29 in 10.0 mi Calm Calm - N/A   Clear
2:35 AM 39.4 °F - 37.4 °F 93% 30.29 in 10.0 mi Calm Calm - N/A   Clear
2:55 AM 38.3 °F - 36.9 °F 95% 30.29 in 10.0 mi Calm Calm - N/A   Clear
3:15 AM 38.3 °F - 37.2 °F 96% 30.28 in 10.0 mi Calm Calm - N/A   Clear
3:35 AM 37.6 °F - 36.7 °F 97% 30.27 in 10.0 mi Calm Calm - N/A   Clear
3:55 AM 36.1 °F - 35.4 °F 97% 30.27 in 10.0 mi Calm Calm - N/A   Clear
4:15 AM 35.6 °F - 35.1 °F 98% 30.26 in 10.0 mi Calm Calm - N/A   Clear
4:35 AM 34.9 °F - 34.7 °F 99% 30.26 in 10.0 mi Calm Calm - N/A   Clear
4:55 AM 35.6 °F - 35.6 °F 100% 30.25 in 10.0 mi Calm Calm - N/A   Clear
5:15 AM 36.0 °F - 36.0 °F 100% 30.25 in 10.0 mi Calm Calm - N/A   Clear
5:35 AM 36.0 °F - 36.0 °F 100% 30.25 in 10.0 mi Calm Calm - N/A   Clear
6:55 AM 33.8 °F 30.8 °F 33.8 °F 100% 30.25 in 10.0 mi ENE 3.5 mph - N/A   Clear
7:55 AM 37.4 °F - 37.4 °F 100% 30.26 in 10.0 mi Calm Calm - N/A   Clear
8:55 AM 46.4 °F - 41.0 °F 81% 30.26 in 10.0 mi Calm Calm - N/A   Clear
9:55 AM 57.2 °F - 37.4 °F 48% 30.24 in 10.0 mi SSE 9.2 mph - N/A   Clear
10:55 AM 60.8 °F - 35.6 °F 39% 30.22 in 10.0 mi South 9.2 mph - N/A   Clear
11:55 AM 62.6 °F - 35.6 °F 37% 30.17 in 10.0 mi SSE 10.4 mph - N/A   Clear
12:55 PM 66.2 °F - 35.6 °F 32% 30.10 in 10.0 mi South 11.5 mph - N/A   Clear
1:55 PM 68.0 °F - 39.2 °F 35% 30.06 in 10.0 mi South 11.5 mph 17.3 mph N/A   Clear
2:55 PM 69.8 °F - 41.0 °F 35% 30.03 in 10.0 mi WSW 11.5 mph 17.3 mph N/A   Clear
3:55 PM 68.0 °F - 39.2 °F 35% 30.03 in 10.0 mi South 9.2 mph - N/A   Clear
4:55 PM 64.4 °F - 41.0 °F 42% 30.02 in 10.0 mi South 10.4 mph - N/A   Clear
5:55 PM 57.2 °F - 42.8 °F 59% 30.01 in 10.0 mi SSE 5.8 mph - N/A   Clear
6:55 PM 55.4 °F - 42.8 °F 63% 30.01 in 10.0 mi SSE 6.9 mph - N/A   Clear
7:55 PM 55.4 °F - 42.8 °F 63% 30.01 in 10.0 mi SSE 6.9 mph - N/A   Clear
8:55 PM 53.6 °F - 42.8 °F 67% 30.02 in 10.0 mi Calm Calm - N/A   Clear
9:15 PM 50.4 °F - 42.1 °F 73% 30.01 in 10.0 mi SE 4.6 mph - N/A   Clear
9:35 PM 51.1 °F - 42.3 °F 72% 30.01 in 10.0 mi SE 4.6 mph - N/A   Clear
9:55 PM 50.0 °F - 42.8 °F 76% 30.00 in 10.0 mi SSE 4.6 mph - N/A   Clear
10:15 PM 49.6 °F - 42.8 °F 77% 30.00 in 10.0 mi Calm Calm - N/A   Clear
10:35 PM 48.4 °F - 42.6 °F 80% 30.00 in 10.0 mi Calm Calm - N/A   Clear
10:55 PM 45.1 °F 43.7 °F 41.9 °F 88% 30.01 in 10.0 mi NE 3.5 mph - N/A   Clear
11:15 PM 44.2 °F 41.8 °F 41.9 °F 91% 30.01 in 10.0 mi NNE 4.6 mph - N/A   Clear
11:35 PM 43.2 °F 40.5 °F 41.4 °F 93% 30.01 in 10.0 mi North 4.6 mph - N/A   Clear
11:55 PM 44.1 °F - 42.3 °F 93% 30.01 in 10.0 mi Calm Calm - N/A   Clear